Weather History for Kankakee, IL

Change the Weather History Date:

Sunday, November 13, 2011

  Actual Average Record
Temperature  
Mean Temperature 60 °F -  
Max Temperature 71 °F 49 °F 71 °F (2011)
Min Temperature 50 °F 29 °F 4 °F (1986)
Degree Days  
Heating Degree Days 4    
Growing Degree Days 10 (Base 50)    
Moisture  
Dew Point 48 °F    
Average Humidity 68    
Maximum Humidity 82    
Minimum Humidity 46    
Precipitation  
Precipitation 0.00 in - - ()
Sea Level Pressure  
Sea Level Pressure 29.50 in    
Wind  
Wind Speed 23 mph (South)    
Max Wind Speed 38 mph    
Max Gust Speed 48 mph    
Visibility 10 miles    
Events      
Averages and records for this station are not official NWS values.
T = Trace of Precipitation, MM = Missing Value Source: NWS Daily Summary

Daily Weather History Graph

Daily Weather History Graph

Search for Another Location

Airport:

Trip Planner

Search our weather history database for the weather conditions in past years. The results will help you decide how hot, cold, wet, or windy it might be!

Date:

Astronomy

Nov. 13, 2011 Rise Set
Actual Time 6:36 AM CST 4:34 PM CST
Civil Twilight 6:06 AM CST 5:03 PM CST
Nautical Twilight 5:33 AM CST 5:37 PM CST
Astronomical Twilight 5:01 AM CST 6:09 PM CST
Moon 6:42 PM CST (11/13) 9:09 AM CST (11/13)
Length of Visible Light 10h 56m
Length of Day
9h 58m
Waning Gibbous, 92% of the Moon is Illuminated
Nov 13
Waning Gibbous
Nov 18
Last Quarter
Nov 25
New
Dec 2
First Quarter
Dec 10
Full

Hourly Weather History & Observations

Time (CST) Temp. Windchill Dew Point Humidity Pressure Visibility Wind Dir Wind Speed Gust Speed Precip Events Conditions
12:15 AM 51.8 °F - 42.8 °F 71% 29.64 in 10.0 mi South 19.6 mph 27.6 mph N/A   Mostly Cloudy
12:35 AM 51.8 °F - 42.8 °F 71% 29.63 in 10.0 mi South 17.3 mph 28.8 mph N/A   Overcast
12:55 AM 51.8 °F - 42.8 °F 71% 29.63 in 10.0 mi South 17.3 mph 27.6 mph N/A   Overcast
1:15 AM 51.8 °F - 42.8 °F 71% 29.62 in 10.0 mi South 18.4 mph 25.3 mph N/A   Mostly Cloudy
1:35 AM 51.8 °F - 42.8 °F 71% 29.61 in 10.0 mi South 18.4 mph 25.3 mph N/A   Scattered Clouds
1:55 AM 50.0 °F - 42.8 °F 76% 29.60 in 10.0 mi South 16.1 mph 24.2 mph N/A   Clear
2:15 AM 50.0 °F - 42.8 °F 76% 29.60 in 10.0 mi South 18.4 mph 25.3 mph N/A   Clear
2:35 AM 50.0 °F - 42.8 °F 76% 29.59 in 10.0 mi South 17.3 mph 25.3 mph N/A   Clear
2:55 AM 50.0 °F - 44.6 °F 82% 29.58 in 10.0 mi South 17.3 mph 23.0 mph N/A   Clear
3:15 AM 50.0 °F - 44.6 °F 82% 29.58 in 10.0 mi South 17.3 mph 24.2 mph N/A   Scattered Clouds
3:35 AM 51.8 °F - 44.6 °F 76% 29.58 in 10.0 mi South 18.4 mph 26.5 mph N/A   Mostly Cloudy
3:55 AM 51.8 °F - 44.6 °F 76% 29.58 in 10.0 mi South 17.3 mph 27.6 mph N/A   Mostly Cloudy
4:15 AM 51.8 °F - 44.6 °F 76% 29.58 in 10.0 mi South 16.1 mph 19.6 mph N/A   Overcast
4:35 AM 51.8 °F - 44.6 °F 76% 29.57 in 10.0 mi South 17.3 mph 20.7 mph N/A   Mostly Cloudy
4:55 AM 51.8 °F - 44.6 °F 76% 29.56 in 10.0 mi South 18.4 mph 23.0 mph N/A   Scattered Clouds
5:15 AM 51.8 °F - 46.4 °F 82% 29.55 in 10.0 mi South 19.6 mph 25.3 mph N/A   Clear
5:35 AM 51.8 °F - 46.4 °F 82% 29.54 in 10.0 mi South 20.7 mph 29.9 mph N/A   Clear
5:55 AM 51.8 °F - 46.4 °F 82% 29.53 in 10.0 mi South 19.6 mph 26.5 mph N/A   Clear
6:15 AM 51.8 °F - 46.4 °F 82% 29.54 in 10.0 mi South 19.6 mph 27.6 mph N/A   Clear
6:35 AM 53.6 °F - 46.4 °F 77% 29.54 in 10.0 mi South 21.9 mph 28.8 mph N/A   Clear
6:55 AM 53.6 °F - 46.4 °F 77% 29.54 in 10.0 mi South 25.3 mph 31.1 mph N/A   Clear
7:15 AM 53.6 °F - 48.2 °F 82% 29.53 in 10.0 mi South 19.6 mph 27.6 mph N/A   Clear
7:35 AM 55.4 °F - 48.2 °F 77% 29.53 in 10.0 mi South 21.9 mph 32.2 mph N/A   Clear
7:55 AM 55.4 °F - 48.2 °F 77% 29.53 in 10.0 mi South 21.9 mph 28.8 mph N/A   Clear
8:15 AM 55.4 °F - 48.2 °F 77% 29.51 in 10.0 mi South 24.2 mph 33.4 mph N/A   Scattered Clouds
8:35 AM 57.2 °F - 50.0 °F 77% 29.51 in 10.0 mi South 26.5 mph 33.4 mph N/A   Mostly Cloudy
8:55 AM 59.0 °F - 50.0 °F 72% 29.49 in 10.0 mi South 28.8 mph 36.8 mph N/A   Mostly Cloudy
9:15 AM 59.0 °F - 50.0 °F 72% 29.48 in 10.0 mi South 28.8 mph 41.4 mph N/A   Mostly Cloudy
9:35 AM 60.8 °F - 51.8 °F 72% 29.48 in 10.0 mi South 33.4 mph 40.3 mph N/A   Mostly Cloudy
9:55 AM 62.6 °F - 51.8 °F 68% 29.48 in 10.0 mi South 28.8 mph 43.7 mph N/A   Overcast
10:15 AM 62.6 °F - 51.8 °F 68% 29.46 in 10.0 mi South 31.1 mph 42.6 mph N/A   Overcast
10:35 AM 62.6 °F - 51.8 °F 68% 29.46 in 10.0 mi South 31.1 mph 42.6 mph N/A   Overcast
10:55 AM 64.4 °F - 51.8 °F 64% 29.45 in 10.0 mi South 32.2 mph 44.9 mph N/A   Overcast
11:15 AM 64.4 °F - 51.8 °F 64% 29.44 in 10.0 mi SSW 35.7 mph 44.9 mph N/A   Overcast
11:35 AM 64.4 °F - 51.8 °F 64% 29.44 in 10.0 mi SSW 38.0 mph 47.2 mph N/A   Overcast
11:55 AM 64.4 °F - 51.8 °F 64% 29.43 in 10.0 mi SSW 28.8 mph 47.2 mph N/A   Overcast
12:15 PM 64.4 °F - 51.8 °F 64% 29.42 in 10.0 mi SSW 33.4 mph 42.6 mph N/A   Overcast
12:35 PM 68.0 °F - 51.8 °F 56% 29.42 in 10.0 mi SSW 35.7 mph 46.0 mph N/A   Overcast
12:55 PM 69.8 °F - 51.8 °F 53% 29.42 in 10.0 mi SSW 38.0 mph 46.0 mph N/A   Mostly Cloudy
1:15 PM 69.8 °F - 51.8 °F 53% 29.42 in 10.0 mi SW 34.5 mph 46.0 mph N/A   Scattered Clouds
1:35 PM 69.8 °F - 50.0 °F 49% 29.41 in 10.0 mi SW 34.5 mph 48.3 mph N/A   Clear
1:55 PM 69.8 °F - 50.0 °F 49% 29.41 in 10.0 mi SW 34.5 mph 43.7 mph N/A   Clear
2:15 PM 71.6 °F - 50.0 °F 46% 29.40 in 10.0 mi SSW 35.7 mph 47.2 mph N/A   Clear
2:35 PM 69.8 °F - 50.0 °F 49% 29.40 in 10.0 mi SSW 33.4 mph 44.9 mph N/A   Clear
2:55 PM 69.8 °F - 51.8 °F 53% 29.41 in 10.0 mi SSW 29.9 mph 44.9 mph N/A   Clear
3:15 PM 69.8 °F - 51.8 °F 53% 29.43 in 10.0 mi SSW 31.1 mph 40.3 mph N/A   Clear
3:35 PM 68.0 °F - 51.8 °F 56% 29.43 in 10.0 mi SSW 33.4 mph 44.9 mph N/A   Clear
3:55 PM 68.0 °F - 51.8 °F 56% 29.44 in 10.0 mi SSW 26.5 mph 34.5 mph N/A   Clear
4:15 PM 68.0 °F - 51.8 °F 56% 29.44 in 10.0 mi SSW 23.0 mph 33.4 mph N/A   Clear
4:35 PM 66.2 °F - 51.8 °F 60% 29.45 in 10.0 mi SSW 25.3 mph 33.4 mph N/A   Clear
4:55 PM 64.4 °F - 51.8 °F 64% 29.45 in 10.0 mi SSW 26.5 mph 32.2 mph N/A   Clear
5:15 PM 64.4 °F - 51.8 °F 64% 29.46 in 10.0 mi SSW 21.9 mph 33.4 mph N/A   Clear
5:35 PM 64.4 °F - 51.8 °F 64% 29.48 in 10.0 mi SSW 23.0 mph 31.1 mph N/A   Clear
5:55 PM 62.6 °F - 51.8 °F 68% 29.50 in 10.0 mi SSW 19.6 mph 28.8 mph N/A   Clear
6:15 PM 60.8 °F - 51.8 °F 72% 29.52 in 10.0 mi SW 17.3 mph 23.0 mph N/A   Clear
6:35 PM 59.0 °F - 46.4 °F 63% 29.55 in 10.0 mi West 13.8 mph - N/A   Clear
6:55 PM 57.2 °F - 35.6 °F 44% 29.57 in 10.0 mi West 13.8 mph 18.4 mph N/A   Clear
7:15 PM 55.4 °F - 33.8 °F 44% 29.58 in 10.0 mi West 12.7 mph - N/A   Clear
7:35 PM 53.6 °F - 33.8 °F 47% 29.59 in 10.0 mi WSW 9.2 mph - N/A   Clear
7:55 PM 51.8 °F - 33.8 °F 50% 29.60 in 10.0 mi WSW 6.9 mph - N/A   Clear
8:15 PM 50.0 °F - 33.8 °F 54% 29.61 in 10.0 mi SW 5.8 mph - N/A   Clear
8:35 PM 46.4 °F 42.9 °F 33.8 °F 62% 29.62 in 10.0 mi SW 6.9 mph - N/A   Clear
8:55 PM 46.4 °F 43.5 °F 33.8 °F 62% 29.63 in 10.0 mi SW 5.8 mph - N/A   Clear
9:15 PM 44.6 °F 40.2 °F 33.8 °F 66% 29.64 in 10.0 mi SSW 8.1 mph - N/A   Clear
9:35 PM 44.6 °F 40.7 °F 33.8 °F 66% 29.63 in 10.0 mi SSW 6.9 mph - N/A   Clear
9:55 PM 44.6 °F 40.7 °F 33.8 °F 66% 29.64 in 10.0 mi SW 6.9 mph - N/A   Clear
10:15 PM 44.6 °F 40.7 °F 33.8 °F 66% 29.65 in 10.0 mi SW 6.9 mph - N/A   Clear
10:35 PM 44.6 °F 40.7 °F 33.8 °F 66% 29.65 in 10.0 mi SW 6.9 mph - N/A   Clear
10:55 PM 42.8 °F 37.5 °F 33.8 °F 70% 29.66 in 10.0 mi SSW 9.2 mph - N/A   Clear
11:15 PM 44.6 °F 40.7 °F 33.8 °F 66% 29.67 in 10.0 mi South 6.9 mph - N/A   Clear
11:35 PM 42.8 °F 41.1 °F 33.8 °F 70% 29.66 in 10.0 mi SSW 3.5 mph - N/A   Clear
11:55 PM 42.8 °F 38.6 °F 33.8 °F 70% 29.67 in 10.0 mi SSW 6.9 mph - N/A   Clear